When you browse on this site, cookies collect data to enhance your experience and personalize the content and advertising you see.
Visit our Privacy Policy to learn more. By continuing to use the site, you agree to this use of cookies and data.
  • In United Kingdom
  • List of Countries
  • For 7 days
  • Water Temperature
  • Weather Map
  • Weather Widgets
  • user-avatar
    Login

    Hourly Weather Munich

    Today, 26 August, Monday

    Time Temperature Precipitation Wind Pressure Humidity
    00:00 +19°C° 0.1 mm 1 mps 719 mmHg 89%
    01:00 +18°C° 0 mm 1 mps 719 mmHg 89%
    02:00 +18°C° 0.1 mm 1 mps 719 mmHg 90%
    03:00 +18°C° 0.1 mm 1 mps 719 mmHg 90%
    04:00 +16°C° 0.1 mm 1 mps 719 mmHg 90%
    05:00 +18°C° 0 mm 1 mps 719 mmHg 89%
    06:00 +18°C° 0 mm 1 mps 719 mmHg 88%
    07:00 +17°C° 0 mm 0 mps 719 mmHg 87%
    08:00 +21°C° 0 mm 1 mps 719 mmHg 80%
    09:00 +23°C° 0 mm 1 mps 719 mmHg 74%
    10:00 +25°C° 0 mm 1 mps 720 mmHg 68%
    11:00 +26°C° 0.1 mm 1 mps 719 mmHg 64%
    12:00 +27°C° 0.1 mm 1 mps 719 mmHg 61%
    13:00 +28°C° 0.1 mm 2 mps 719 mmHg 58%
    14:00 +27°C° 0.9 mm 2 mps 719 mmHg 62%
    15:00 +27°C° 0.9 mm 2 mps 718 mmHg 65%
    16:00 +27°C° 0.9 mm 2 mps 718 mmHg 69%
    17:00 +25°C° 1.1 mm 1 mps 718 mmHg 73%
    18:00 +24°C° 1.1 mm 1 mps 718 mmHg 78%
    19:00 +22°C° 1.1 mm 1 mps 718 mmHg 82%
    20:00 +21°C° 0.1 mm 1 mps 718 mmHg 84%
    21:00 +21°C° 0.1 mm 1 mps 718 mmHg 85%
    22:00 +20°C° 0.1 mm 1 mps 718 mmHg 87%
    23:00 +20°C° 0 mm 1 mps 718 mmHg 88%

    Tomorrow, 27 August, Tuesday

    Time Temperature Precipitation Wind Pressure Humidity
    00:00 +19°C° 0 mm 1 mps 718 mmHg 89%
    01:00 +19°C° 0 mm 1 mps 718 mmHg 90%
    02:00 +18°C° 0 mm 1 mps 718 mmHg 90%
    03:00 +18°C° 0 mm 1 mps 718 mmHg 90%
    04:00 +16°C° 0 mm 1 mps 718 mmHg 90%
    05:00 +18°C° 0 mm 1 mps 718 mmHg 89%
    06:00 +18°C° 0 mm 1 mps 718 mmHg 88%
    07:00 +19°C° 0 mm 1 mps 718 mmHg 86%
    08:00 +21°C° 0 mm 1 mps 718 mmHg 79%
    09:00 +23°C° 0 mm 1 mps 719 mmHg 71%
    10:00 +26°C° 0 mm 1 mps 719 mmHg 64%
    11:00 +27°C° 0 mm 1 mps 719 mmHg 59%
    12:00 +28°C° 0 mm 1 mps 719 mmHg 54%
    13:00 +29°C° 0 mm 1 mps 719 mmHg 49%
    14:00 +29°C° 0 mm 1 mps 718 mmHg 50%
    15:00 +29°C° 0 mm 1 mps 718 mmHg 51%
    16:00 +29°C° 0 mm 1 mps 718 mmHg 53%
    17:00 +27°C° 0 mm 1 mps 718 mmHg 61%
    18:00 +24°C° 0 mm 1 mps 718 mmHg 70%
    19:00 +22°C° 0 mm 1 mps 717 mmHg 78%
    20:00 +22°C° 0 mm 1 mps 718 mmHg 80%
    21:00 +21°C° 0 mm 1 mps 718 mmHg 81%
    22:00 +20°C° 0 mm 1 mps 718 mmHg 83%
    23:00 +20°C° 0 mm 1 mps 718 mmHg 83%

    Day after tomorrow, 28 August, Wednesday

    Time Temperature Precipitation Wind Pressure Humidity
    00:00 +20°C° 0 mm 1 mps 718 mmHg 84%
    01:00 +19°C° 0 mm 1 mps 718 mmHg 84%
    02:00 +19°C° 0 mm 1 mps 718 mmHg 84%
    03:00 +19°C° 0 mm 1 mps 718 mmHg 83%
    04:00 +19°C° 0 mm 1 mps 718 mmHg 83%
    05:00 +19°C° 0 mm 1 mps 718 mmHg 82%
    06:00 +20°C° 0 mm 1 mps 718 mmHg 80%
    07:00 +20°C° 0 mm 1 mps 718 mmHg 79%
    08:00 +22°C° 0 mm 1 mps 718 mmHg 72%
    09:00 +23°C° 0 mm 0 mps 718 mmHg 65%
    10:00 +25°C° 0 mm 0 mps 719 mmHg 59%
    11:00 +26°C° 0 mm 0 mps 718 mmHg 56%
    12:00 +28°C° 0 mm 1 mps 718 mmHg 54%
    13:00 +29°C° 0 mm 1 mps 718 mmHg 52%
    14:00 +29°C° 0 mm 2 mps 718 mmHg 54%
    15:00 +29°C° 0 mm 2 mps 718 mmHg 56%
    16:00 +29°C° 0 mm 2 mps 717 mmHg 58%
    17:00 +27°C° 0.1 mm 2 mps 717 mmHg 65%
    18:00 +25°C° 0.1 mm 1 mps 717 mmHg 71%
    19:00 +23°C° 0.1 mm 1 mps 717 mmHg 78%
    20:00 +23°C° 0 mm 1 mps 717 mmHg 79%
    21:00 +20°C° 0 mm 0 mps 717 mmHg 80%
    22:00 +20°C° 0 mm 0 mps 718 mmHg 81%
    23:00 +19°C° 0 mm 0 mps 717 mmHg 83%

    29 August, Thursday

    Time Temperature Precipitation Wind Pressure Humidity
    00:00 +19°C° 0 mm 0 mps 717 mmHg 85%
    01:00 +20°C° 0 mm 1 mps 717 mmHg 87%
    02:00 +20°C° 0.1 mm 1 mps 717 mmHg 88%
    03:00 +19°C° 0.1 mm 1 mps 717 mmHg 89%
    04:00 +19°C° 0.1 mm 1 mps 717 mmHg 90%
    05:00 +19°C° 0.2 mm 1 mps 717 mmHg 89%
    06:00 +20°C° 0.2 mm 1 mps 717 mmHg 89%
    07:00 +19°C° 0.2 mm 2 mps 717 mmHg 89%
    08:00 +21°C° 0.1 mm 2 mps 717 mmHg 83%
    09:00 +23°C° 0.1 mm 2 mps 718 mmHg 77%
    10:00 +25°C° 0.1 mm 2 mps 718 mmHg 72%
    11:00 +26°C° 1.3 mm 2 mps 718 mmHg 71%
    12:00 +26°C° 1.3 mm 2 mps 718 mmHg 71%
    13:00 +27°C° 1.3 mm 2 mps 718 mmHg 70%
    14:00 +26°C° 0.7 mm 2 mps 718 mmHg 73%
    15:00 +26°C° 0.7 mm 2 mps 718 mmHg 76%
    16:00 +26°C° 0.7 mm 2 mps 718 mmHg 79%
    17:00 +24°C° 0.2 mm 1 mps 718 mmHg 80%
    18:00 +23°C° 0.2 mm 1 mps 718 mmHg 81%
    19:00 +20°C° 0.2 mm 0 mps 718 mmHg 81%
    20:00 +21°C° 0 mm 1 mps 718 mmHg 82%
    21:00 +21°C° 0 mm 1 mps 718 mmHg 83%
    22:00 +20°C° 0 mm 1 mps 719 mmHg 84%
    23:00 +20°C° 0 mm 1 mps 718 mmHg 86%

    30 August, Friday

    Time Temperature Precipitation Wind Pressure Humidity
    00:00 +19°C° 0 mm 1 mps 718 mmHg 88%
    01:00 +19°C° 0 mm 1 mps 718 mmHg 89%
    02:00 +19°C° 0.2 mm 1 mps 718 mmHg 90%
    03:00 +18°C° 0.2 mm 2 mps 718 mmHg 90%
    04:00 +17°C° 0.2 mm 2 mps 718 mmHg 91%
    05:00 +18°C° 0.1 mm 2 mps 719 mmHg 90%
    06:00 +18°C° 0.1 mm 2 mps 719 mmHg 90%
    07:00 +18°C° 0.1 mm 2 mps 719 mmHg 90%
    08:00 +20°C° 0 mm 2 mps 719 mmHg 85%
    09:00 +22°C° 0 mm 1 mps 719 mmHg 81%
    10:00 +23°C° 0 mm 1 mps 719 mmHg 76%
    11:00 +25°C° 0.2 mm 1 mps 719 mmHg 72%
    12:00 +26°C° 0.2 mm 1 mps 719 mmHg 67%
    13:00 +27°C° 0.2 mm 1 mps 719 mmHg 63%
    14:00 +27°C° 1 mm 2 mps 719 mmHg 66%
    15:00 +26°C° 1 mm 2 mps 718 mmHg 69%
    16:00 +26°C° 1 mm 2 mps 718 mmHg 72%
    17:00 +25°C° 0.5 mm 2 mps 718 mmHg 77%
    18:00 +23°C° 0.5 mm 1 mps 718 mmHg 81%
    19:00 +22°C° 0.5 mm 1 mps 718 mmHg 86%
    20:00 +21°C° 0.3 mm 1 mps 718 mmHg 87%
    21:00 +21°C° 0.3 mm 1 mps 718 mmHg 88%
    22:00 +18°C° 0.3 mm 0 mps 719 mmHg 89%
    23:00 +20°C° 0 mm 1 mps 718 mmHg 90%

    31 August, Saturday

    Time Temperature Precipitation Wind Pressure Humidity
    00:00 +19°C° 0 mm 1 mps 718 mmHg 91%
    01:00 +19°C° 0 mm 1 mps 718 mmHg 92%
    02:00 +18°C° 0 mm 1 mps 717 mmHg 92%
    03:00 +18°C° 0 mm 1 mps 717 mmHg 93%
    04:00 +18°C° 0 mm 1 mps 717 mmHg 93%
    05:00 +18°C° 0 mm 1 mps 717 mmHg 93%
    06:00 +19°C° 0 mm 1 mps 717 mmHg 92%
    07:00 +19°C° 0 mm 1 mps 717 mmHg 92%
    08:00 +21°C° 0 mm 1 mps 717 mmHg 85%
    09:00 +21°C° 0 mm 0 mps 717 mmHg 79%
    10:00 +23°C° 0 mm 0 mps 717 mmHg 72%
    11:00 +24°C° 0 mm 0 mps 717 mmHg 68%
    12:00 +27°C° 0 mm 1 mps 717 mmHg 64%
    13:00 +28°C° 0 mm 1 mps 716 mmHg 59%
    14:00 +28°C° 0 mm 1 mps 716 mmHg 60%
    15:00 +28°C° 0 mm 1 mps 716 mmHg 61%
    16:00 +27°C° 0 mm 1 mps 715 mmHg 62%
    17:00 +26°C° 0.2 mm 1 mps 715 mmHg 69%
    18:00 +24°C° 0.2 mm 1 mps 715 mmHg 77%
    19:00 +22°C° 0.2 mm 1 mps 715 mmHg 84%
    20:00 +22°C° 0.9 mm 1 mps 715 mmHg 86%
    21:00 +21°C° 0.9 mm 1 mps 716 mmHg 89%
    22:00 +20°C° 0.9 mm 1 mps 716 mmHg 91%
    23:00 +20°C° 0.2 mm 1 mps 716 mmHg 91%
    Show more